FALCON 9 DEB (47611 NORAD) Tracking and Keplerian Element Data

This shows tracking and keplerian element data for the satellite.

Feedback or suggestion? Click here.




ElementValue
Catalog47611
NameFALCON 9 DEB
Epoch Orbit413
Epoch Day60.87420933
Epoch Year2021
RAAN352.1958
Inclination53.0335
Eccentricity0.0008802
Argument of Perigee274.5596
Mean Anonmoly85.4445
Mean Motion16.4124614
Decay Rate0.06681898
L11 47611U 21009BR 21060.87420933 .06681898 12405-4 40911-3 0 9996
L22 47611 53.0335 352.1958 0008802 274.5596 85.4445 16.41246140 4136



Live tracking and technical data element details for FALCON 9 DEB (NORAD 47611). FALCON 9 DEB can be tracked NOW for your location showing map with azimuth and elevation plus other details from your city location.







IsCatalogInMostPopularTable: catalog: 47611, numindb: 121
Update: records affected: 1



GetName: 47611 FALCON 9 DEB

Hit Count: updated at: Sun, 28 May 2023 20:22:01 GMT